Regional Weather Roundup
Issued by NWS

Home | Current Version | Previous Version | Graphics & Text | Print | Product List | Glossary On
Versions: 1 2 3 4 5 6 7 8 9 10 11 12 13 14 15 16 17 18 19 20 21 22 23 24 25 26 27 28 29 30 31 32 33 34 35 36 37 38 39 40 41 42 43 44 45 46 47 48 49 50
000
ASUS43 KDMX 201006
RWRIA

WEATHER ROUNDUP FOR IOWA
NATIONAL WEATHER SERVICE DES MOINES IA
400 AM CST FRI JAN 20 2017

NOTE: "FAIR" INDICATES FEW OR NO CLOUDS BELOW 12,000 FEET WITH NO
SIGNIFICANT WEATHER AND/OR OBSTRUCTIONS TO VISIBILITY.

* - THESE STATIONS ARE NOT NWS STATIONS...THUS NOT UNDER NWS
QUALITY CONTROL.  THEY ALSO DO NOT REPORT WEATHER SUCH
AS PRECIPITATION OR FOG.

IAZ001>003-012>014-020>022-031>034-043>046-201100-
   NORTHWEST IOWA

CITY           SKY/WX    TMP DP  RH WIND       PRES   REMARKS
CARROLL *      FOG       36  36 100 SE3       29.61R VSB 3/4
CHEROKEE *     CLOUDY    36  36 100 CALM      29.58S FOG
DENISON *      FOG       37  37 100 CALM      29.57F VSB 3/4
LE MARS *      CLOUDY    37  37 100 SE6       29.56F FOG     WCI  33
ORANGE CITY *  FOG       36  36 100 SE3       29.55F VSB 1/4
SHELDON *      CLOUDY    36  36 100 SE5       29.55F FOG     WCI  32
SIOUX CITY     FOG       38  37  97 SE7       29.56F VSB 3/4 WCI  33
SPENCER        CLOUDY    35  35 100 E3        29.58F
STORM LAKE *   FOG       36  36 100 SW5       29.58S VSB 1/4 WCI  32
$$

IAZ055>058-069>071-079>083-090>094-201100-
   SOUTHWEST IOWA

CITY           SKY/WX    TMP DP  RH WIND       PRES   REMARKS
ATLANTIC *     FOG       36  36 100 E3        29.59F VSB<1/4
AUDUBON *      CLOUDY    37  36  93 CALM      29.60F FOG
CLARINDA *     FOG       37  37 100 CALM      29.61F VSB 1/4
COUNCIL BLFS * CLOUDY    39  39 100 MISG      29.58F
CRESTON *      FOG       37  37 100 CALM      29.59F VSB<1/4
HARLAN  *      FOG       36  36 100 CALM      29.62F VSB 1/2
LAMONI         FOG       37  37 100 CALM      29.58F VSB 1/2
RED OAK *      FOG       37  37 100 CALM      29.60S VSB 1/4
SHENANDOAH *   CLOUDY    37  37 100 NE8       29.59F FOG     WCI  31
$$

IAZ047>049-059>061-072>074-084-201100-
   CENTRAL IOWA

CITY           SKY/WX    TMP DP  RH WIND       PRES   REMARKS
AMES           FOG       34  34 100 CALM      29.61F VSB 1/2
ANKENY *       FOG       36  36 100 CALM      29.62F VSB 3/4
BOONE *        FOG       34  34 100 CALM      29.60F VSB 1/4
CHARITON *     FOG       36  36 100 E5        29.59F VSB 1/4 WCI  32
DES MOINES     FOG       37  37 100 CALM      29.61F VSB 3/4
GRINNELL*      FOG       35  35  99 E3        29.62F VSB 1/2
KNOXVILLE *    FOG       36  36 100 CALM      29.58F VSB 1/4
MARSHALLTOWN   FOG       34  34 100 E5        29.61F VSB 1/2 WCI  30
NEWTON *       FOG       36  36 100 NE5       29.60F VSB 1/4 WCI  32
PELLA *        FOG       36  36  99 CALM      29.61F VSB 1/2
PERRY *        FOG       35  35  99 CALM      29.62S VSB 1/2
$$

IAZ004>006-015-016-023>025-035-036-201100-
   NORTH CENTRAL IOWA

CITY           SKY/WX    TMP DP  RH WIND       PRES   REMARKS
ALGONA *       FOG       36  36 100 SE3       29.61F VSB 1/2
CLARION *      FOG       34  34 100 SE6       29.61F VSB 3/4 WCI  29
ESTHERVILLE    FOG       32  32 100 SE5       29.60S VSB 1/2 WCI  27
FORT DODGE *   CLOUDY    34  32  93 SE3       29.62S
MASON CITY     CLOUDY    33  33 100 SE8       29.64R FOG     WCI  26
FOREST CITY *  CLOUDY    32  32 100 SE7       29.62S FOG     WCI  26
WEBSTER CITY * FOG       34  34 100 CALM      29.60S VSB 1/2
IOWA FALLS *   FOG       35  34  97 E5        29.63S VSB 1/2 WCI  31
$$

IAZ007>011-017>019-026>030-037>042-050>054-066-201100-
   NORTHEAST IOWA

CITY           SKY/WX    TMP DP  RH WIND       PRES   REMARKS
CEDAR RAPIDS   FOG       35  35 100 E3        29.62S VSB 1/2
CHARLES CITY * MIX PCPN  34  34 100 E6        29.64S VSB 1   WCI  29
CLINTON *      LGT RAIN  36  35  96 NE5       29.64S VSB 1/4 WCI  32
DECORAH *      CLOUDY    34  34 100 E5        29.63S FOG     WCI  30
DUBUQUE        FOG       34  34 100 NE7       29.63F VSB 1/4 WCI  28
MONTICELLO *   FOG       36  36 100 CALM      29.63S VSB 1
OELWEIN *      FOG       34  34 100 E6        29.63F VSB 1/2 WCI  29
WATERLOO       FOG       34  33  96 E3        29.63S VSB 3/4
$$

IAZ064-065-067-068-078-201100-
   EAST CENTRAL IOWA

CITY           SKY/WX    TMP DP  RH WIND       PRES   REMARKS
DAVENPORT      FOG       36  36 100 E5        29.63F VSB 1/4 WCI  32
IOWA CITY      FOG       37  35  92 NE5       29.64F VSB 1   WCI  33
MUSCATINE *    FOG       37  36  93 CALM      29.64S VSB 1/4
QUAD CITIES    FOG       37  36  96 E3        29.62F VSB 1/4
$$

IAZ062-063-075>077-085>089-095>099-201100-
   SOUTHEAST IOWA

CITY           SKY/WX    TMP DP  RH WIND       PRES   REMARKS
BURLINGTON     FOG       38  38 100 NE5       29.60F VSB 1   WCI  34
FAIRFIELD *    FOG       37  37 100 NE5       29.60F VSB 1/4 WCI  34
FORT MADISON * FOG       37  37 100 CALM      29.61S VSB 1/4
KEOKUK *       FOG       37  37 100 CALM      29.60S VSB 1/4
OSKALOOSA *    FOG       35  35  99 NE5       29.60F VSB 1/4 WCI  31
OTTUMWA        FOG       37  37 100 NE6       29.59F VSB 1/2 WCI  32
WASHINGTON *   FOG       36  36 100 N5        29.63F VSB 1/4 WCI  32
$$

ABBREVIATIONS USED IN REMARKS
   TC - TEMPERATURES IN CELSIUS
  WCI - WIND CHILL INDEX
   HX - HEAT INDEX
  VSB - VISIBILITY
$$





USA.gov is the U.S. government's official web portal to all federal, state and local government web resources and services.